FW4185 Weather Reports


Display with metric or nautical units.
time (UTC)temp
F
wind
direction
speed
MPH
gust
MPH
rain 1hr
in
rain 24hr
in
rain mn
in
humidity
%
barometer
mb
20260903093518 0 358 1.0 8.0 0.00 0.00 0.00
20260903092729 0 355 6.0 5.0 0.00 0.00 0.00
20260903091938 70 356 4.0 7.0 0.00 0.00 0.00 86 1012.9
20260903091258 70 356 5.0 8.0 0.00 0.00 0.00 86 1012.8
20260903090618 70 355 5.0 8.0 0.00 0.00 0.00 87 1012.9
20260903085939 0 357 0.0 2.0 0.00 0.00 0.00
20260903085150 0 359 0.0 0.0 0.00 0.00 0.00
20260903084402 0 356 0.0 0.0 0.00 0.00 0.00
20260903083610 0 359 0.0 0.0 0.00 0.00 0.00
20260903082825 69 355 0.0 0.0 0.00 0.00 0.00 86 1013.0
20260903082140 69 356 0.0 0.0 0.00 0.00 0.00 85 1012.9
20260903081501 69 357 0.0 0.0 0.00 0.00 0.00 85 1012.6
20260903080820 69 356 0.0 0.0 0.00 0.00 0.00 85 1012.4
20260903080145 69 356 0.0 0.0 0.00 0.00 0.00 85 1012.4
20260903075500 69 355 0.0 0.0 0.00 0.00 0.00 85 1012.5
20260903074821 0 357 0.0 0.0 0.00 0.00 0.00
20260903074029 69 357 0.0 0.0 0.00 0.00 0.00 85 1012.5
20260903073350 70 356 0.0 0.0 0.00 0.00 0.00 85 1012.5
20260903072710 0 357 0.0 0.0 0.00 0.00 0.00
20260903071922 70 354 0.0 7.0 0.00 0.00 0.00 85 1012.5
20260903071244 70 354 3.0 8.0 0.00 0.00 0.00 85 1012.6
20260903070603 70 357 6.0 8.0 0.00 0.00 0.00 85 1012.5
20260903065922 70 357 0.0 7.0 0.00 0.00 0.00 85 1012.4
20260903065242 70 356 3.0 7.0 0.00 0.00 0.00 84 1012.6
20260903064603 0 354 6.0 6.0 0.00 0.00 0.00
20260903063814 0 354 6.0 7.0 0.00 0.00 0.00
20260903062918 0 356 7.0 7.0 0.00 0.00 0.00
20260903062127 70 355 6.0 11.0 0.00 0.00 0.00 81 1013.3
20260903061448 70 355 5.0 16.0 0.00 0.00 0.00 83 1013.4
20260903060809 0 356 9.0 4.0 0.00 0.00 0.00
20260903060018 70 354 7.0 14.0 0.00 0.00 0.00 85 1013.4
20260903055338 70 355 8.0 14.0 0.00 0.00 0.00 85 1013.4
20260903054659 0 355 9.0 10.0 0.00 0.00 0.00
20260903053506 70 356 5.0 8.0 0.00 0.00 0.00 87 1013.1
20260903052826 70 356 3.0 9.0 0.00 0.00 0.00 86 1013.2
20260903052145 70 354 5.0 10.0 0.00 0.00 0.00 85 1013.3
20260903051505 70 354 7.0 11.0 0.00 0.00 0.00 85 1013.6
20260903050825 70 356 4.0 10.0 0.00 0.00 0.00 85 1013.4
20260903050145 70 355 3.0 14.0 0.00 0.00 0.00 86 1013.2
20260903045504 70 356 5.0 14.0 0.00 0.00 0.00 86 1013.3
20260903044825 70 356 5.0 10.0 0.00 0.00 0.00 87 1013.2
20260903044145 70 358 3.0 9.0 0.00 0.00 0.00 86 1013.3
20260903043505 70 353 6.0 9.0 0.00 0.00 0.00 86 1013.4
20260903042825 70 356 4.0 6.0 0.00 0.00 0.00 86 1013.6
20260903042037 70 354 5.0 11.0 0.00 0.00 0.00 86 1013.1
20260903041358 70 355 0.0 12.0 0.00 0.00 0.00 87 1012.9
20260903040717 70 351 4.0 11.0 0.00 0.00 0.00 86 1013.1
20260903040037 70 356 1.0 9.0 0.00 0.00 0.00 87 1012.8
20260903035358 70 356 2.0 9.0 0.00 0.00 0.00 87 1012.5
20260903034718 70 356 0.0 9.0 0.00 0.00 0.00 86 1012.3
20260903034038 70 354 2.0 9.0 0.00 0.00 0.00 86 1012.4
20260903033358 70 356 0.0 10.0 0.00 0.00 0.00 87 1012.4
20260903032720 70 356 3.0 9.0 0.00 0.00 0.00 87 1012.8
20260903032038 70 355 1.0 9.0 0.00 0.00 0.00 87 1012.9
20260903031358 69 356 0.0 0.0 0.00 0.00 0.00 88 1013.0
20260903030718 69 356 0.0 0.0 0.00 0.00 0.00 89 1013.2
20260903030038 69 355 0.0 0.0 0.00 0.00 0.27 90 1013.3
20260903025358 69 354 0.0 9.0 0.00 0.00 0.27 90 1013.3
20260903024718 68 357 1.0 9.0 0.00 0.00 0.26 91 1013.4
20260903024038 69 356 2.0 7.0 0.00 0.00 0.24 88 1013.7
20260903023358 0 360 0.0 3.0 0.00 0.00 0.12
20260903022608 69 354 0.0 6.0 0.00 0.00 0.10 87 1013.9
20260903021933 70 356 0.0 9.0 0.00 0.00 0.10 87 1013.7
20260903021248 70 353 2.0 9.0 0.00 0.00 0.10 88 1013.7
20260903020608 70 356 1.0 8.0 0.00 0.00 0.10 88 1013.9
20260903015933 70 356 0.0 8.0 0.00 0.00 0.10 88 1013.8
20260903015249 70 355 4.0 10.0 0.00 0.00 0.09 86 1014.1
20260903014608 70 356 2.0 9.0 0.00 0.00 0.09 86 1014.2
20260903013934 71 357 4.0 16.0 0.00 0.00 0.09 86 1014.3
20260903013248 71 356 8.0 16.0 0.00 0.00 0.08 85 1013.6
20260903012608 0 356 2.0 5.0 0.00 0.00 0.07
20260903011705 71 353 5.0 9.0 0.00 0.00 0.07 85 1013.0
20260903010807 0 358 0.0 8.0 0.00 0.00 0.07
20260903010020 71 355 2.0 8.0 0.00 0.00 0.07 85 1013.9
20260903005340 71 356 2.0 6.0 0.00 0.00 0.07 86 1014.0
20260903004701 0 356 0.0 9.0 0.00 0.00 0.07
20260903003900 72 356 2.0 7.0 0.00 0.00 0.07 83 1013.2
20260903003221 72 356 0.0 0.0 0.00 0.00 0.07 84 1012.7
20260903002551 0 357 0.0 9.0 0.00 0.00 0.07
20260903001753 71 357 4.0 9.0 0.00 0.00 0.06 86 1012.1
20260903001113 0 355 3.0 12.0 0.00 0.00 0.06
20260903000211 72 356 7.0 18.0 0.00 0.00 0.06 84 1012.3
20260902235530 73 356 9.0 22.0 0.00 0.00 0.05 81 1011.6
20260902234850 0 355 12.0 16.0 0.00 0.00 0.04
20260902234045 75 357 11.0 23.0 0.00 0.00 0.03 73 1011.7
20260902233411 76 356 7.0 18.0 0.00 0.00 0.03 69 1012.1
20260902232726 75 357 5.0 22.0 0.00 0.00 0.03 75 1012.6
20260902232046 75 355 12.0 34.0 0.00 0.00 0.03 69 1012.6
20260902231406 75 355 9.0 34.0 0.00 0.00 0.03 95 1013.3
20260902230725 78 356 7.0 10.0 0.00 0.00 0.01 78 1013.0
20260902225649 0 354 9.0 7.0 0.00 0.00 0.01
20260902224828 78 357 5.0 8.0 0.00 0.00 0.01 78 1011.7
20260902224149 0 356 0.0 6.0 0.00 0.00 0.01
20260902223403 79 357 1.0 9.0 0.00 0.00 0.01 79 1012.4
20260902222718 78 359 2.0 9.0 0.00 0.00 0.01 79 1012.1
20260902222039 79 357 4.0 9.0 0.00 0.00 0.01 78 1012.0
20260902221409 78 358 1.0 8.0 0.00 0.00 0.01 78 1011.8
20260902220719 79 355 2.0 8.0 0.00 0.00 0.01 77 1011.9
20260902220038 79 356 0.0 0.0 0.00 0.00 0.01 76 1011.8
20260902215400 79 354 0.0 7.0 0.00 0.00 0.01 78 1011.6
20260902214719 80 356 0.0 6.0 0.00 0.00 0.01 76 1011.4
20260902214039 80 359 0.0 0.0 0.00 0.00 0.01 76 1011.2
20260902213400 0 356 0.0 0.0 0.00 0.00 0.01
20260902212606 80 356 0.0 5.0 0.00 0.00 0.01 75 1011.2
20260902211927 81 357 0.0 6.0 0.00 0.00 0.01 73 1011.5
20260902211247 0 357 0.0 6.0 0.00 0.00 0.01
20260902210458 80 356 5.0 7.0 0.00 0.00 0.01 74 1012.1
20260902205820 80 356 1.0 7.0 0.00 0.00 0.01 74 1012.3
20260902205139 80 358 1.0 7.0 0.00 0.00 0.01 74 1012.3
20260902204500 0 359 0.0 7.0 0.00 0.00 0.01
20260902203707 0 357 3.0 3.0 0.00 0.00 0.01
20260902202757 0 356 0.0 7.0 0.00 0.00 0.01
20260902201955 80 356 0.0 6.0 0.00 0.00 0.01 71 1013.4
20260902201301 0 356 2.0 8.0 0.00 0.00 0.01
20260902200351 0 357 2.0 2.0 0.00 0.00 0.01
20260902195555 81 352 2.0 3.0 0.00 0.00 0.01 67 1013.9
20260902194737 0 357 1.0 6.0 0.00 0.00 0.01
20260902193949 0 352 0.0 2.0 0.00 0.00 0.01
20260902193202 0 352 0.0 0.0 0.00 0.00 0.01
20260902192404 82 357 0.0 0.0 0.00 0.00 0.01 65 1014.0
20260902191725 0 357 0.0 0.0 0.00 0.00 0.01
20260902190829 83 356 0.0 0.0 0.00 0.00 0.01 64 1014.2
20260902190139 82 356 0.0 5.0 0.00 0.00 0.01 66 1014.1
20260902185505 0 357 0.0 8.0 0.00 0.00 0.01
20260902184707 0 355 5.0 5.0 0.00 0.00 0.01
20260902184003 82 355 6.0 10.0 0.00 0.00 0.01 64 1014.1
20260902183338 83 356 5.0 11.0 0.00 0.00 0.01 63 1014.0
20260902182645 0 355 7.0 9.0 0.00 0.00 0.01
20260902181903 83 354 6.0 10.0 0.00 0.00 0.01 62 1013.9
20260902181213 0 360 2.0 2.0 0.00 0.00 0.01
20260902180311 0 355 6.0 5.0 0.00 0.00 0.01
20260902175513 83 354 3.0 10.0 0.00 0.00 0.01 63 1014.1
20260902174833 0 355 7.0 5.0 0.00 0.00 0.01
20260902174043 82 354 5.0 10.0 0.00 0.00 0.01 64 1014.4
20260902173403 80 355 7.0 10.0 0.00 0.00 0.01 66 1014.5
20260902172724 0 359 4.0 9.0 0.00 0.00 0.01
20260902171710 80 357 6.0 9.0 0.00 0.00 0.01 70 1014.9
20260902171030 78 358 4.0 6.0 0.00 0.00 0.01 74 1015.1
20260902170355 78 359 0.0 8.0 0.00 0.00 0.01 76 1015.3
20260902165711 77 358 3.0 8.0 0.00 0.00 0.01 80 1015.3
20260902165031 0 357 3.0 8.0 0.00 0.00 0.00
20260902164247 76 356 6.0 10.0 0.00 0.00 0.00 82 1015.0
20260902163557 76 356 6.0 10.0 0.00 0.00 0.00 82 1014.5
20260902162933 76 356 6.0 11.0 0.00 0.00 0.00 80 1014.6
20260902162248 0 357 5.0 5.0 0.00 0.00 0.00
20260902161459 0 358 3.0 7.0 0.00 0.00 0.00
20260902160655 77 355 0.0 0.0 0.00 0.00 0.00 76 1014.9
20260902155446 78 356 0.0 7.0 0.00 0.00 0.00 73 1015.0
20260902154805 79 359 3.0 5.0 0.00 0.00 0.00 72 1014.9
20260902154125 78 356 1.0 5.0 0.00 0.00 0.00 70 1015.1
20260902153446 79 356 0.0 0.0 0.00 0.00 0.00 69 1015.1
20260902152545 79 356 0.0 4.0 0.00 0.00 0.00 67 1014.9
20260902151905 78 355 0.0 0.0 0.00 0.00 0.00 69 1015.0
20260902151225 79 355 0.0 0.0 0.00 0.00 0.00 67 1015.3
20260902150545 77 355 0.0 0.0 0.00 0.00 0.00 70 1015.4
20260902145601 0 358 0.0 7.0 0.00 0.00 0.00
20260902144810 77 355 2.0 10.0 0.00 0.00 0.00 72 1015.7
20260902144130 77 359 4.0 10.0 0.00 0.00 0.00 71 1015.6
20260902143450 77 358 0.0 8.0 0.00 0.00 0.00 72 1015.7
20260902142810 0 356 5.0 7.0 0.00 0.00 0.00
20260902142103 77 356 6.0 8.0 0.00 0.00 0.00 75 1015.6
20260902141425 76 356 4.0 8.0 0.00 0.00 0.00 77 1015.6
20260902140746 76 355 3.0 9.0 0.00 0.00 0.00 76 1015.5
20260902140105 77 356 0.0 0.0 0.00 0.00 0.00 77 1015.8
20260902134724 77 358 0.0 0.0 0.00 0.00 0.00 75 1015.7
20260902134038 76 358 0.0 0.0 0.00 0.00 0.00 78 1015.7
20260902133359 0 355 0.0 3.0 0.00 0.00 0.00
20260902132619 0 354 0.0 0.0 0.00 0.00 0.00
20260902131551 0 357 0.0 0.0 0.00 0.00 0.00
20260902130758 74 355 0.0 0.0 0.00 0.00 0.00 83 1016.0
20260902130119 74 357 0.0 3.0 0.00 0.00 0.00 82 1016.0
20260902125444 74 358 0.0 0.0 0.00 0.00 0.00 80 1016.1
20260902124759 74 355 0.0 0.0 0.00 0.00 0.00 81 1015.7
20260902124119 0 358 0.0 0.0 0.00 0.00 0.00
20260902123331 74 356 0.0 0.0 0.00 0.00 0.00 81 1015.6
20260902122650 74 355 0.0 5.0 0.00 0.00 0.00 80 1015.4
20260902122011 0 356 0.0 11.0 0.00 0.00 0.00
20260902121221 74 355 8.0 16.0 0.00 0.00 0.00 78 1014.3
20260902120543 0 358 9.0 8.0 0.00 0.00 0.00
20260902115750 75 355 10.0 19.0 0.00 0.00 0.00 80 1014.0
20260902115109 75 355 10.0 21.0 0.00 0.00 0.00 80 1014.5
20260902114430 75 355 10.0 17.0 0.00 0.00 0.00 80 1014.7
20260902113750 0 355 7.0 7.0 0.00 0.00 0.00
20260902112947 74 356 2.0 6.0 0.00 0.00 0.00 82 1014.1
20260902112317 74 355 0.0 9.0 0.00 0.00 0.00 81 1013.8
20260902111627 74 355 5.0 9.0 0.00 0.00 0.00 81 1014.0
20260902110947 0 356 8.0 6.0 0.00 0.00 0.00
20260902110153 0 355 6.0 8.0 0.00 0.00 0.00
20260902105403 73 356 3.0 8.0 0.00 0.00 0.00 82 1013.5
20260902104723 73 355 2.0 9.0 0.00 0.00 0.00 82 1013.5
20260902104043 73 355 6.0 11.0 0.00 0.00 0.00 82 1013.4
20260902103403 73 355 0.0 0.0 0.00 0.00 0.00 83 1013.4
20260902102723 73 356 0.0 0.0 0.00 0.00 0.00 83 1013.4
20260902102043 73 356 0.0 0.0 0.00 0.00 0.00 82 1013.6
20260902101408 73 356 0.0 0.0 0.00 0.00 0.00 83 1013.7
20260902100723 73 355 0.0 0.0 0.00 0.00 0.00 83 1013.4
20260902100042 73 357 0.0 0.0 0.00 0.00 0.00 83 1013.4
20260902095403 0 358 0.0 6.0 0.00 0.00 0.00
20260902094610 73 353 2.0 7.0 0.00 0.00 0.00 85 1013.4
20260902093930 73 356 2.0 6.0 0.00 0.00 0.00 85 1013.6